Regional Weather Roundup
Issued by NWS

Home | Current Version | Previous Version | Text Only | Print | Product List | Glossary Off
Versions: 1 2 3 4 5 6 7 8 9 10 11 12 13 14 15 16 17 18 19 20 21 22 23 24 25 26 27 28 29 30 31 32 33 34 35 36 37 38 39 40 41 42 43 44 45 46 47 48 49 50

591
ASUS45 KCYS 290910
RWRWY

WYOMING REGIONAL WEATHER ROUNDUP
NATIONAL WEATHER SERVICE CHEYENNE WY
300 AM MDT FRI JUL 29 2016

NOTE:  "FAIR" INDICATES FEW OR NO CLOUDS BELOW 12,000 FEET
WITH NO SIGNIFICANT WEATHER AND/OR OBSTRUCTIONS TO VISIBILITY.

WYZ001-291000-
YELLOWSTONE NATIONAL PARK

CITY           SKY/WX    TMP DP  RH WIND       PRES   REMARKS
LK YELLOWSTONE   N/A     46  39  76 CALM      30.36F
W YELLOWSTONE  NOT AVBL

$$
WYZ002>013-054>058-071-098>099-291000-
NORTHERN WYOMING

CITY           SKY/WX    TMP DP  RH WIND       PRES   REMARKS
JACKSON        FAIR      57  43  58 N8        30.24F
CODY           FAIR      61  48  63 CALM      30.19F
GREYBULL       FAIR      64  49  57 W3        30.11S
WORLAND        FAIR      62  47  57 S7        30.12F
SHERIDAN       FAIR      55  50  83 CALM      30.12F
BUFFALO        FAIR      58  50  75 SW7       30.18F
GILLETTE       FAIR      53  52  96 CALM      30.15F
HULETT         FAIR      54  52  94 CALM      30.17F
NEWCASTLE      FAIR      55  54  94 CALM      30.19S

$$
WYZ014>020-022>026-101>103-291000-
CENTRAL WYOMING

CITY           SKY/WX    TMP DP  RH WIND       PRES   REMARKS
BIG PINEY      FAIR      50  28  42 N9        30.31S
PINEDALE       FAIR      45  34  65 W5        30.32R
DUBOIS         FAIR      50  41  71 W5        30.33F
LANDER         FAIR      60  44  55 S5        30.20F
RIVERTON       FAIR      61  48  62 NE5       30.21F
CASPER         FAIR      54  49  83 W3        30.20F
DOUGLAS          N/A    N/A N/A N/A MISG      30.20F

$$
WYZ021-027>030-104>119-291000-
SOUTHERN WYOMING

CITY           SKY/WX    TMP DP  RH WIND       PRES   REMARKS
EVANSTON       FAIR      59  32  36 E9        30.29S
KEMMERER         N/A    N/A N/A N/A N10       30.32R
FORT BRIDGER   FAIR      60  33  36 CALM      30.31S
ROCK SPRINGS   FAIR      60  44  55 E9        30.27F
DIXON          FAIR      58  43  58 NE10      30.23S
RAWLINS        FAIR      58  51  78 NE9       30.26S
SARATOGA       FAIR      52  46  82 CALM      30.28S
LARAMIE        FAIR      55  53  93 SE8       30.30F
CHEYENNE       FAIR      58  56  93 SW8       30.26F
TORRINGTON     FAIR      58  56  93 E7        30.16F
PINE BLUFFS    FAIR      59  57  94 SW3       30.23F

$$




USA.gov is the U.S. government's official web portal to all federal, state and local government web resources and services.